GW3793 Weather Reports


Display with metric or nautical units.
time (UTC)temp
F
wind
direction
speed
MPH
gust
MPH
rain 1hr
in
rain 24hr
in
rain mn
in
humidity
%
barometer
mb
20260903235403 49 165 2.0 5.0 0.02 0.35 0.22 94 1010.7
20260903234503 48 159 2.0 4.0 0.02 0.34 0.22 94 1010.7
20260903233603 48 158 2.0 4.0 0.03 0.34 0.22 94 1010.7
20260903232703 48 160 3.0 6.0 0.03 0.34 0.22 94 1010.7
20260903231803 48 161 3.0 6.0 0.04 0.34 0.22 94 1010.5
20260903230903 49 162 2.0 4.0 0.03 0.33 0.21 94 1010.6
20260903230220 48 162 2.0 4.0 0.03 0.33 0.21 93 1010.4
20260903225404 48 151 2.0 4.0 0.03 0.33 0.20 93 1010.5
20260903224503 48 159 2.0 4.0 0.02 0.32 0.20 93 1010.7
20260903223603 48 163 1.0 3.0 0.02 0.31 0.19 93 1010.6
20260903222703 48 149 2.0 5.0 0.02 0.31 0.19 92 1010.5
20260903221803 48 130 2.0 4.0 0.02 0.30 0.18 92 1010.5
20260903220903 48 163 2.0 5.0 0.03 0.30 0.18 92 1010.2
20260903220217 48 167 2.0 4.0 0.04 0.30 0.18 93 1010.5
20260903215404 48 166 3.0 6.0 0.04 0.30 0.18 92 1010.3
20260903214503 48 171 2.0 6.0 0.05 0.30 0.18 93 1010.1
20260903213818 48 172 3.0 6.0 0.06 0.30 0.17 92 1010.3
20260903212703 49 164 3.0 6.0 0.06 0.29 0.17 92 1010.2
20260903211805 49 167 2.0 6.0 0.06 0.28 0.16 93 1010.2
20260903210903 49 165 1.0 4.0 0.06 0.27 0.15 92 1010.5
20260903210003 49 165 3.0 6.0 0.06 0.26 0.14 92 1010.2
20260903205617 49 166 2.0 6.0 0.06 0.26 0.13 92 1010.2
20260903204503 49 161 1.0 4.0 0.06 0.25 0.13 92 1009.8
20260903203603 49 145 1.0 2.0 0.05 0.24 0.11 92 1009.9
20260903202703 49 163 0.0 2.0 0.04 0.22 0.11 91 1010.2
20260903201803 49 0 0.0 0.0 0.04 0.22 0.10 91 1009.8
20260903200903 49 165 0.0 3.0 0.04 0.21 0.09 91 1009.9
20260903200003 49 152 0.0 3.0 0.04 0.20 0.08 90 1009.8
20260903195403 49 162 1.0 4.0 0.04 0.20 0.07 90 1009.8
20260903194503 49 162 2.0 4.0 0.04 0.19 0.07 89 1009.6
20260903193603 50 169 2.0 4.0 0.03 0.19 0.06 89 1009.4
20260903192705 50 167 1.0 3.0 0.04 0.18 0.06 90 1009.7
20260903191803 50 148 2.0 3.0 0.04 0.18 0.06 90 1009.4
20260903190903 50 157 1.0 4.0 0.04 0.17 0.05 90 1009.4
20260903190003 50 143 2.0 4.0 0.03 0.17 0.04 89 1009.5
20260903185403 50 148 1.0 4.0 0.03 0.16 0.04 90 1009.5
20260903184717 50 149 1.0 5.0 0.02 0.16 0.04 90 1009.5
20260903183603 50 158 2.0 5.0 0.02 0.15 0.03 88 1009.0
20260903182704 50 154 1.0 3.0 0.02 0.15 0.02 89 1009.0
20260903182017 50 163 1.0 3.0 0.02 0.14 0.02 87 1008.8
20260903180903 50 162 1.0 3.0 0.01 0.13 0.01 86 1008.9
20260903180003 50 158 1.0 4.0 0.01 0.13 0.01 86 1008.8
20260903175403 50 160 1.0 4.0 0.01 0.13 0.01 85 1008.9
20260903174503 50 169 1.0 4.0 0.01 0.13 0.01 85 1008.6
20260903173603 50 172 2.0 4.0 0.00 0.13 0.01 86 1008.6
20260903172703 50 163 2.0 4.0 0.00 0.13 0.01 85 1008.6
20260903171803 50 164 2.0 6.0 0.00 0.13 0.00 84 1008.7
20260903170903 50 152 2.0 6.0 0.00 0.13 0.00 83 1008.5
20260903170003 50 168 2.0 3.0 0.00 0.13 0.00 85 1008.3
20260903165403 50 167 2.0 4.0 0.00 0.13 0.00 85 1008.3
20260903164503 50 174 2.0 4.0 0.00 0.13 0.00 84 1008.3
20260903163603 50 163 2.0 5.0 0.00 0.13 0.00 85 1008.4
20260903162703 50 163 2.0 4.0 0.00 0.13 0.00 85 1008.1
20260903161803 49 150 1.0 3.0 0.00 0.13 0.00 87 1008.3
20260903161118 49 155 1.0 3.0 0.00 0.13 0.00 87 1008.3
20260903160003 49 161 2.0 5.0 0.00 0.13 0.00 89 1008.1
20260903155403 48 170 2.0 5.0 0.00 0.13 0.00 89 1008.0
20260903154718 48 160 2.0 5.0 0.00 0.13 0.00 89 1008.0
20260903153603 48 167 2.0 7.0 0.00 0.12 0.00 89 1008.3
20260903152917 48 172 1.0 3.0 0.00 0.12 0.00 90 1007.9
20260903152018 48 165 1.0 2.0 0.00 0.12 0.00 90 1007.9
20260903150903 48 168 1.0 3.0 0.00 0.12 0.00 90 1008.1
20260903150003 48 161 1.0 3.0 0.00 0.12 0.00 90 1007.8
20260903145403 47 169 1.0 3.0 0.00 0.12 0.00 89 1007.9
20260903144503 47 174 1.0 3.0 0.00 0.12 0.00 89 1007.9
20260903143817 47 175 1.0 4.0 0.00 0.12 0.00 90 1007.8
20260903142703 48 175 1.0 2.0 0.00 0.12 0.00 90 1007.8
20260903141803 48 163 2.0 6.0 0.00 0.12 0.00 90 1007.5
20260903140903 48 161 1.0 6.0 0.00 0.12 0.00 91 1007.4
20260903140004 48 177 0.0 2.0 0.00 0.12 0.00 91 1007.6
20260903135403 48 157 1.0 4.0 0.00 0.12 0.00 91 1007.5
20260903134503 48 171 1.0 4.0 0.00 0.12 0.00 92 1007.2
20260903133603 48 152 0.0 3.0 0.00 0.12 0.00 92 1007.5
20260903132703 48 178 0.0 3.0 0.00 0.12 0.00 91 1007.4
20260903131803 48 150 0.0 1.0 0.00 0.12 0.00 91 1007.1
20260903130903 48 120 0.0 2.0 0.00 0.12 0.00 91 1007.0
20260903130003 49 153 1.0 2.0 0.00 0.12 0.00 91 1006.9
20260903125403 49 170 1.0 2.0 0.00 0.12 0.00 90 1006.9
20260903124503 49 139 1.0 2.0 0.00 0.12 0.00 90 1006.9
20260903123603 49 82 0.0 1.0 0.00 0.12 0.00 90 1007.1
20260903122918 49 0 0.0 0.0 0.00 0.12 0.00 89 1007.0
20260903121803 49 51 0.0 2.0 0.00 0.12 0.00 89 1006.8
20260903121116 50 173 0.0 3.0 0.00 0.12 0.00 88 1006.9
20260903120003 50 174 3.0 6.0 0.00 0.12 0.00 87 1006.8
20260903115617 50 171 2.0 6.0 0.00 0.12 0.00 86 1006.8
20260903114503 50 162 2.0 6.0 0.00 0.12 0.00 87 1006.3
20260903113603 50 157 2.0 5.0 0.00 0.12 0.00 88 1006.5
20260903112704 50 162 2.0 5.0 0.00 0.12 0.00 88 1006.8
20260903111803 51 163 2.0 6.0 0.00 0.12 0.00 89 1006.6
20260903110903 51 166 2.0 6.0 0.00 0.12 0.00 88 1006.7
20260903110003 51 165 2.0 7.0 0.00 0.12 0.00 87 1006.7
20260903105403 51 163 2.0 7.0 0.00 0.12 0.00 87 1006.7
20260903104503 51 172 3.0 8.0 0.00 0.12 0.00 86 1006.6
20260903103603 51 173 3.0 7.0 0.00 0.12 0.00 87 1006.3
20260903102704 51 163 3.0 7.0 0.00 0.12 0.00 86 1006.6
20260903101803 51 165 3.0 8.0 0.00 0.12 0.00 86 1006.3
20260903100903 51 165 2.0 5.0 0.00 0.12 0.00 87 1006.3
20260903100004 51 166 3.0 11.0 0.00 0.12 0.00 87 1006.2
20260903095403 51 166 3.0 11.0 0.00 0.12 0.00 88 1006.0
20260903094718 51 158 2.0 6.0 0.00 0.12 0.00 88 1006.0
20260903093603 51 155 2.0 5.0 0.00 0.12 0.00 88 1005.8
20260903092703 51 152 2.0 6.0 0.00 0.12 0.00 88 1005.9
20260903092018 51 156 3.0 6.0 0.00 0.12 0.00 88 1006.0
20260903090903 51 166 3.0 5.0 0.00 0.12 0.00 88 1005.6
20260903090004 51 164 3.0 6.0 0.00 0.12 0.00 87 1005.9
20260903085403 51 165 2.0 6.0 0.00 0.12 0.00 87 1006.0
20260903084717 51 167 2.0 4.0 0.00 0.12 0.00 87 1005.8
20260903083604 51 166 3.0 7.0 0.00 0.12 0.00 87 1005.8
20260903082703 51 166 3.0 8.0 0.00 0.12 0.00 87 1005.9
20260903082017 51 158 3.0 9.0 0.00 0.12 0.00 88 1005.8
20260903080903 51 160 3.0 8.0 0.00 0.12 0.00 89 1005.7
20260903080003 51 158 3.0 10.0 0.00 0.12 0.00 90 1005.4
20260903075618 51 158 3.0 11.0 0.00 0.12 0.00 89 1005.7
20260903074503 51 158 3.0 7.0 0.00 0.12 0.00 90 1005.7
20260903073603 51 161 2.0 7.0 0.00 0.12 0.00 90 1005.3
20260903072703 51 121 2.0 6.0 0.00 0.12 0.00 89 1005.6
20260903071803 51 144 2.0 6.0 0.00 0.12 0.00 90 1005.6
20260903070903 51 139 2.0 8.0 0.00 0.12 0.00 90 1005.6
20260903070218 51 145 3.0 9.0 0.00 0.12 0.00 90 1005.6
20260903065617 51 146 3.0 9.0 0.00 0.12 0.12 91 1005.1
20260903064503 50 148 3.0 10.0 0.00 0.12 0.12 92 1005.2
20260903063604 49 142 2.0 10.0 0.00 0.12 0.12 92 1005.2
20260903062703 49 128 2.0 6.0 0.00 0.12 0.12 91 1005.2
20260903061803 49 118 2.0 6.0 0.00 0.12 0.12 91 1005.2
20260903061118 49 114 3.0 9.0 0.00 0.12 0.12 92 1005.2
20260903060003 49 120 3.0 9.0 0.00 0.12 0.12 92 1005.2
20260903055403 49 124 3.0 9.0 0.00 0.12 0.12 91 1005.3
20260903054717 49 122 3.0 8.0 0.00 0.12 0.12 91 1005.1
20260903053818 49 120 3.0 9.0 0.00 0.12 0.12 91 1005.0
20260903052703 49 116 3.0 13.0 0.00 0.12 0.12 92 1005.1
20260903051803 49 120 3.0 12.0 0.00 0.12 0.12 92 1005.2
20260903050903 49 114 2.0 8.0 0.00 0.12 0.12 93 1005.0
20260903050003 49 112 2.0 5.0 0.00 0.12 0.12 92 1005.1
20260903045403 49 112 2.0 6.0 0.00 0.12 0.12 93 1005.0
20260903044718 49 116 2.0 7.0 0.00 0.12 0.12 92 1005.3
20260903043603 49 97 2.0 11.0 0.00 0.12 0.12 93 1005.0
20260903042703 49 93 2.0 6.0 0.00 0.12 0.12 93 1005.0
20260903041803 49 84 1.0 5.0 0.00 0.12 0.12 92 1004.8
20260903040903 49 54 0.0 4.0 0.00 0.12 0.12 91 1005.1
20260903040003 49 79 0.0 4.0 0.00 0.12 0.12 91 1005.0
20260903035404 49 75 0.0 2.0 0.00 0.12 0.12 91 1005.1
20260903034503 49 70 1.0 5.0 0.00 0.12 0.12 91 1004.9
20260903033603 50 53 0.0 2.0 0.00 0.12 0.12 91 1005.0
20260903032703 50 62 0.0 2.0 0.00 0.12 0.12 91 1005.0
20260903031803 50 45 1.0 4.0 0.00 0.12 0.12 90 1004.9
20260903030903 50 58 1.0 3.0 0.00 0.12 0.12 90 1004.8
20260903030004 50 34 1.0 3.0 0.00 0.13 0.12 89 1004.9
20260903025403 50 69 1.0 5.0 0.00 0.13 0.12 90 1004.7
20260903024717 50 67 1.0 4.0 0.00 0.13 0.12 89 1004.8
20260903023603 50 349 0.0 2.0 0.00 0.13 0.12 89 1004.7
20260903022703 51 351 1.0 2.0 0.00 0.13 0.12 89 1004.7
20260903021803 51 23 1.0 3.0 0.00 0.13 0.12 89 1004.8
20260903020903 51 55 1.0 4.0 0.00 0.13 0.12 89 1005.1
20260903020218 51 56 0.0 4.0 0.00 0.13 0.12 89 1005.2
20260903015404 51 98 0.0 2.0 0.00 0.13 0.12 88 1004.9
20260903014503 51 111 0.0 3.0 0.02 0.13 0.12 88 1005.3
20260903013603 51 169 0.0 2.0 0.12 0.13 0.12 87 1004.8
20260903012703 51 27 1.0 4.0 0.12 0.13 0.12 86 1004.7
20260903011803 51 19 1.0 3.0 0.12 0.13 0.12 85 1004.9
20260903010903 51 156 0.0 2.0 0.12 0.13 0.12 85 1005.1
20260903010003 52 153 1.0 3.0 0.12 0.13 0.12 81 1005.3
20260903005403 53 150 1.0 6.0 0.12 0.13 0.12 80 1005.1
20260903004503 56 185 5.0 25.0 0.11 0.11 0.11 73 1005.4
20260903003603 58 179 3.0 8.0 0.00 0.01 0.00 68 1005.2
20260903002917 58 166 3.0 7.0 0.00 0.01 0.00 67 1004.2
20260903001803 59 160 4.0 10.0 0.00 0.01 0.00 67 1004.3
20260903000903 60 164 5.0 23.0 0.00 0.01 0.00 65 1004.3
20260903000218 62 145 5.0 23.0 0.00 0.01 0.00 59 1004.4